Weather History for Knox, IN

Change the Weather History Date:

Friday, January 25, 2013

  Actual Average (KVPZ) Record (KVPZ)
Temperature  
Mean Temperature 22 °F 24 °F  
Max Temperature 26 °F 31 °F 50 °F (2002)
Min Temperature 17 °F 16 °F -8 °F (2008)
Degree Days  
Heating Degree Days 44 41  
Month to date heating degree days 1040  
Since 1 July heating degree days 3442  
Cooling Degree Days 0 0  
Month to date cooling degree days 0  
Year to date cooling degree days 0  
Moisture  
Dew Point 15 °F    
Average Humidity 76    
Maximum Humidity 91    
Minimum Humidity 39    
Precipitation  
Precipitation 0.00 in 0.06 in 0.24 in (2005)
Month to date precipitation 1.40  
Year to date precipitation 1.40  
Sea Level Pressure  
Sea Level Pressure 30.11 in    
Wind  
Wind Speed 8 mph (SSW)    
Max Wind Speed 16 mph    
Max Gust Speed 22 mph    
Visibility 9 miles    
Events      
T = Trace of Precipitation, MM = Missing Value Source: NWS Daily Summary

Daily Weather History Graph

Daily Weather History Graph

Search for Another Location

Airport:

Trip Planner

Search our weather history database for the weather conditions in past years. The results will help you decide how hot, cold, wet, or windy it might be!

Date:

Astronomy

Jan. 25, 2013 Rise Set
Actual Time 7:03 AM CST 4:54 PM CST
Civil Twilight 6:34 AM CST 5:24 PM CST
Nautical Twilight 6:00 AM CST 5:57 PM CST
Astronomical Twilight 5:28 AM CST 6:30 PM CST
Moon 3:51 PM CST (1/25) 5:43 AM CST (1/25)
Length of Visible Light 10h 50m
Length of Day
9h 50m
Waxing Gibbous, 98% of the Moon is Illuminated
Jan 25
Waxing Gibbous
Jan 26
Full
Feb 3
Last Quarter
Feb 10
New
Feb 17
First Quarter

Hourly Weather History & Observations

Time (CST) Temp. Windchill Dew Point Humidity Pressure Visibility Wind Dir Wind Speed Gust Speed Precip Events Conditions
12:15 AM 18.9 °F 8.0 °F 8.1 °F 63% 30.37 in 10.0 mi SE 9.2 mph - N/A   Scattered Clouds
12:35 AM 18.5 °F 8.4 °F 8.4 °F 65% 30.37 in 10.0 mi SE 8.1 mph - N/A   Mostly Cloudy
12:55 AM 18.5 °F 8.4 °F 8.8 °F 66% 30.36 in 10.0 mi SE 8.1 mph - N/A   Mostly Cloudy
1:15 AM 18.9 °F 8.0 °F 9.1 °F 66% 30.36 in 10.0 mi SE 9.2 mph - N/A   Overcast
1:35 AM 18.7 °F 6.3 °F 9.7 °F 68% 30.34 in 10.0 mi SE 11.5 mph - N/A   Overcast
1:55 AM 18.9 °F 8.0 °F 9.9 °F 68% 30.33 in 10.0 mi SE 9.2 mph - N/A   Overcast
2:15 AM 18.9 °F 7.2 °F 10.2 °F 69% 30.30 in 10.0 mi ESE 10.4 mph - N/A   Overcast
2:35 AM 18.9 °F 8.0 °F 10.0 °F 69% 30.29 in 10.0 mi SE 9.2 mph - N/A   Overcast
2:55 AM 18.9 °F 5.9 °F 10.2 °F 69% 30.28 in 10.0 mi SE 12.7 mph - N/A   Overcast
3:15 AM 18.9 °F 7.2 °F 10.2 °F 69% 30.26 in 10.0 mi SSE 10.4 mph - N/A   Overcast
3:35 AM 18.9 °F 7.2 °F 9.9 °F 68% 30.24 in 10.0 mi SE 10.4 mph - N/A   Overcast
3:55 AM 18.9 °F 6.5 °F 9.7 °F 67% 30.24 in 10.0 mi SE 11.5 mph - N/A   Overcast
4:15 AM 18.9 °F 9.8 °F 9.5 °F 67% 30.22 in 10.0 mi SE 6.9 mph - N/A   Overcast
4:35 AM 18.9 °F 8.0 °F 9.3 °F 66% 30.20 in 10.0 mi SE 9.2 mph - N/A   Overcast
4:55 AM 18.9 °F 6.5 °F 9.3 °F 66% 30.18 in 10.0 mi SE 11.5 mph - N/A   Overcast
5:15 AM 19.0 °F 9.0 °F 9.1 °F 65% 30.18 in 10.0 mi SSE 8.1 mph - N/A   Overcast
5:35 AM 19.0 °F 9.0 °F 9.1 °F 65% 30.18 in 10.0 mi SSE 8.1 mph - N/A   Overcast
5:55 AM 19.0 °F 9.0 °F 9.1 °F 65% 30.17 in 10.0 mi SSE 8.1 mph - N/A   Overcast
6:15 AM 19.0 °F 12.3 °F 9.3 °F 66% 30.16 in 10.0 mi SE 4.6 mph - N/A   Overcast
6:35 AM 19.0 °F 13.9 °F 9.9 °F 67% 30.16 in 10.0 mi SE 3.5 mph - N/A   Overcast
6:55 AM 18.9 °F 12.1 °F 10.0 °F 69% 30.16 in 10.0 mi SSE 4.6 mph - N/A   Overcast
7:15 AM 18.7 °F 10.6 °F 10.9 °F 72% 30.15 in 1.2 mi SSE 5.8 mph - N/A   Overcast
7:35 AM 18.0 °F - 13.6 °F 83% 30.16 in 0.8 mi Calm Calm - N/A   Overcast
7:55 AM 17.6 °F 8.2 °F 14.9 °F 89% 30.14 in 1.0 mi SSE 6.9 mph - N/A   Overcast
8:15 AM 17.8 °F 10.9 °F 15.4 °F 91% 30.14 in 1.8 mi SSE 4.6 mph - N/A   Overcast
8:35 AM 18.1 °F 11.3 °F 15.6 °F 90% 30.14 in 5.0 mi South 4.6 mph - N/A   Overcast
8:55 AM 18.5 °F 9.3 °F 15.6 °F 89% 30.13 in 5.0 mi South 6.9 mph - N/A   Overcast
9:15 AM 18.9 °F 9.8 °F 15.8 °F 88% 30.12 in 5.0 mi South 6.9 mph - N/A   Overcast
9:35 AM 19.2 °F 10.2 °F 15.6 °F 86% 30.13 in 5.0 mi South 6.9 mph - N/A   Overcast
9:55 AM 19.6 °F 8.9 °F 15.8 °F 85% 30.11 in 3.0 mi South 9.2 mph - N/A   Overcast
10:15 AM 20.3 °F 10.6 °F 16.2 °F 84% 30.11 in 10.0 mi SSW 8.1 mph - N/A   Overcast
10:35 AM 20.5 °F 10.8 °F 16.0 °F 83% 30.10 in 10.0 mi South 8.1 mph - N/A   Overcast
10:55 AM 20.8 °F 11.2 °F 15.8 °F 81% 30.10 in 10.0 mi SSW 8.1 mph - N/A   Overcast
11:15 AM 21.2 °F 11.7 °F 16.2 °F 81% 30.08 in 10.0 mi SSW 8.1 mph - N/A   Overcast
11:35 AM 21.7 °F 10.8 °F 16.3 °F 80% 30.07 in 10.0 mi SSW 10.4 mph - N/A   Overcast
11:55 AM 21.9 °F 10.4 °F 16.5 °F 80% 30.05 in 10.0 mi SSW 11.5 mph - N/A   Overcast
12:15 PM 22.1 °F 10.6 °F 16.7 °F 80% 30.03 in 10.0 mi SW 11.5 mph - N/A   Overcast
12:35 PM 22.5 °F 12.4 °F 17.1 °F 80% 30.03 in 10.0 mi SSW 9.2 mph - N/A   Overcast
12:55 PM 22.8 °F 12.9 °F 17.2 °F 79% 30.01 in 10.0 mi SW 9.2 mph - N/A   Overcast
1:15 PM 23.0 °F 12.4 °F 17.1 °F 78% 30.00 in 10.0 mi SSW 10.4 mph - N/A   Overcast
1:35 PM 23.2 °F 14.1 °F 17.2 °F 78% 29.99 in 10.0 mi WSW 8.1 mph - N/A   Overcast
1:55 PM 23.5 °F 13.7 °F 17.4 °F 77% 29.99 in 10.0 mi WSW 9.2 mph - N/A   Overcast
2:15 PM 23.7 °F 14.0 °F 17.8 °F 78% 30.00 in 10.0 mi WSW 9.2 mph - N/A   Overcast
2:35 PM 23.7 °F 13.3 °F 18.1 °F 79% 29.99 in 10.0 mi SW 10.4 mph - N/A   Overcast
2:55 PM 24.1 °F 13.7 °F 18.5 °F 79% 29.99 in 10.0 mi SW 10.4 mph - N/A   Overcast
3:15 PM 24.6 °F 15.1 °F 19.0 °F 79% 29.99 in 10.0 mi SW 9.2 mph - N/A   Overcast
3:35 PM 24.8 °F 16.1 °F 19.0 °F 79% 29.99 in 10.0 mi SW 8.1 mph - N/A   Overcast
3:45 PM 19.4 °F - -2.2 °F 39% 30.15 in 10.0 mi Calm Calm - N/A   Overcast
3:55 PM 25.2 °F 18.3 °F 19.2 °F 78% 30.00 in 10.0 mi WSW 5.8 mph - N/A   Overcast
4:15 PM 25.3 °F 17.6 °F 19.4 °F 78% 30.00 in 10.0 mi WSW 6.9 mph - N/A   Overcast
4:35 PM 25.5 °F 19.9 °F 19.6 °F 78% 30.01 in 10.0 mi West 4.6 mph - N/A   Overcast
4:55 PM 25.7 °F 20.1 °F 19.4 °F 77% 30.01 in 10.0 mi West 4.6 mph - N/A   Overcast
5:15 PM 25.5 °F 21.3 °F 19.8 °F 79% 30.01 in 10.0 mi West 3.5 mph - N/A   Overcast
5:35 PM 25.5 °F - 19.9 °F 79% 30.02 in 10.0 mi Calm Calm - N/A   Overcast
5:55 PM 25.5 °F - 19.9 °F 79% 30.01 in 10.0 mi Calm Calm - N/A   Overcast
6:15 PM 25.0 °F - 19.9 °F 81% 30.02 in 10.0 mi Calm Calm - N/A   Overcast
6:35 PM 24.4 °F 18.6 °F 20.7 °F 86% 30.02 in 10.0 mi South 4.6 mph - N/A   Overcast
6:55 PM 24.4 °F 18.6 °F 20.5 °F 85% 30.02 in 10.0 mi South 4.6 mph - N/A   Overcast
7:15 PM 24.6 °F 18.8 °F 20.3 °F 84% 30.02 in 10.0 mi South 4.6 mph - N/A   Overcast
7:35 PM 24.6 °F 18.8 °F 20.3 °F 84% 30.02 in 10.0 mi South 4.6 mph - N/A   Overcast
7:55 PM 24.8 °F 17.9 °F 20.1 °F 82% 30.02 in 10.0 mi South 5.8 mph - N/A   Overcast
8:15 PM 24.8 °F 20.5 °F 20.1 °F 82% 30.02 in 10.0 mi SSW 3.5 mph - N/A   Overcast
8:35 PM 25.0 °F 20.7 °F 20.1 °F 82% 30.02 in 10.0 mi SW 3.5 mph - N/A   Overcast
8:55 PM 25.0 °F 19.3 °F 20.1 °F 82% 30.03 in 10.0 mi WSW 4.6 mph - N/A   Overcast
9:15 PM 25.5 °F 18.7 °F 20.1 °F 80% 30.04 in 10.0 mi West 5.8 mph - N/A   Overcast
9:35 PM 26.4 °F 14.0 °F 20.1 °F 77% 30.04 in 10.0 mi WNW 16.1 mph 20.7 mph N/A   Overcast
9:55 PM 26.4 °F 15.0 °F 17.2 °F 68% 30.04 in 10.0 mi WNW 13.8 mph - N/A   Overcast
10:15 PM 25.9 °F 15.3 °F 15.8 °F 66% 30.05 in 10.0 mi WNW 11.5 mph - N/A   Overcast
10:35 PM 25.5 °F 12.9 °F 17.4 °F 71% 30.06 in 10.0 mi NW 16.1 mph 21.9 mph N/A   Overcast
10:55 PM 25.2 °F 13.3 °F 17.2 °F 72% 30.08 in 10.0 mi NW 13.8 mph - N/A   Overcast
11:15 PM 24.8 °F 11.9 °F 16.2 °F 70% 30.09 in 10.0 mi NW 16.1 mph 20.7 mph N/A   Overcast
11:35 PM 24.4 °F 13.0 °F 14.7 °F 67% 30.10 in 10.0 mi NW 12.7 mph - N/A   Overcast